This is the latest recevied weather packets stored in our database for station/object DH6PF-10. If no packets are shown the sender has not sent any weather packets the latest 10 day(s).
| Time | Temp. | Humidity | Pressure | Rain* | Wind** | Luminosity | Snow |
|---|---|---|---|---|---|---|---|
| 1787704310 | 13.89° C | 95% | 1018 hPa | - | - | - | - |
| 1787703710 | 13.89° C | 95% | 1018.1 hPa | - | - | - | - |
| 1787703110 | 14.44° C | 95% | 1018.1 hPa | - | - | - | - |
| 1787702510 | 13.89° C | 95% | 1018 hPa | - | - | - | - |
| 1787701910 | 13.89° C | 95% | 1018.1 hPa | - | - | - | - |
| 1787701310 | 13.89° C | 95% | 1018.1 hPa | - | - | - | - |
| 1787700710 | 13.89° C | 95% | 1018.5 hPa | - | - | - | - |
| 1787700110 | 13.33° C | 95% | 1018.4 hPa | - | - | - | - |
| 1787699510 | 13.33° C | 96% | 1018.3 hPa | - | - | - | - |
| 1787698910 | 13.33° C | 96% | 1018.1 hPa | - | - | - | - |
| 1787698310 | 12.78° C | 95% | 1018.2 hPa | - | - | - | - |
| 1787697710 | 13.33° C | 95% | 1017.9 hPa | - | - | - | - |
| 1787697110 | 13.33° C | 95% | 1018.1 hPa | - | - | - | - |
| 1787696510 | 13.33° C | 95% | 1018 hPa | - | - | - | - |
| 1787695910 | 13.33° C | 95% | 1018.1 hPa | - | - | - | - |
| 1787695310 | 13.33° C | 95% | 1018.2 hPa | - | - | - | - |
| 1787694710 | 13.33° C | 94% | 1018.1 hPa | - | - | - | - |
| 1787694110 | 13.33° C | 94% | 1018.3 hPa | - | - | - | - |
| 1787693510 | 13.89° C | 94% | 1018.1 hPa | - | - | - | - |
| 1787692910 | 13.33° C | 94% | 1017.8 hPa | - | - | - | - |
| 1787692310 | 13.89° C | 95% | 1018 hPa | - | - | - | - |
| 1787691710 | 13.33° C | 94% | 1018.1 hPa | - | - | - | - |
| 1787691110 | 13.89° C | 93% | 1018.1 hPa | - | - | - | - |
| 1787690510 | 13.89° C | 93% | 1018.1 hPa | - | - | - | - |
| 1787689910 | 14.44° C | 92% | 1018.3 hPa | - | - | - | - |
* Rain since midnight (hover to see other rain measurements)
** Current wind speed in m/s (hover to see current wind gust speed)